| time (UTC) | temp F | wind direction | speed knots | gust knots | rain 1hr in | rain 24hr in | rain mn in | humidity % | barometer mb |
| 20260507011512 | 59 | 345 | 0.0 | 0.0 | 0.00 | 0.02 | 0.02 | 83 | 1012.1 |
| 20260507010011 | 59 | 345 | 0.9 | 2.6 | 0.00 | 0.02 | 0.02 | 82 | 1011.8 |
| 20260507004515 | 60 | 345 | 0.9 | 2.6 | 0.00 | 0.02 | 0.02 | 81 | 1011.7 |
| 20260507003010 | 60 | 345 | 0.9 | 3.5 | 0.00 | 0.02 | 0.02 | 81 | 1011.7 |
| 20260507001510 | 60 | 345 | 0.9 | 3.5 | 0.00 | 0.02 | 0.02 | 80 | 1011.6 |
| 20260507000009 | 60 | 345 | 2.6 | 4.3 | 0.00 | 0.02 | 0.02 | 79 | 1011.6 |
| 20260506234506 | 60 | 345 | 2.6 | 4.3 | 0.00 | 0.02 | 0.02 | 79 | 1011.5 |
| 20260506233005 | 60 | 345 | 2.6 | 5.2 | 0.00 | 0.02 | 0.02 | 79 | 1011.4 |
| 20260506231504 | 60 | 344 | 1.7 | 4.3 | 0.00 | 0.02 | 0.02 | 80 | 1011.2 |
| 20260506230004 | 60 | 344 | 2.6 | 5.2 | 0.00 | 0.02 | 0.02 | 79 | 1011.2 |
| 20260506224504 | 60 | 344 | 1.7 | 4.3 | 0.00 | 0.02 | 0.02 | 79 | 1011.0 |
| 20260506223003 | 60 | 344 | 1.7 | 5.2 | 0.00 | 0.02 | 0.02 | 80 | 1010.6 |
| 20260506221502 | 61 | 344 | 1.7 | 8.7 | 0.00 | 0.02 | 0.02 | 79 | 1010.6 |
| 20260506220005 | 61 | 355 | 2.6 | 7.0 | 0.00 | 0.02 | 0.02 | 79 | 1010.5 |
| 20260506214604 | 60 | 355 | 3.5 | 7.0 | 0.00 | 0.02 | 0.02 | 79 | 1010.9 |
| 20260506213001 | 61 | 348 | 2.6 | 7.0 | 0.00 | 0.02 | 0.02 | 79 | 1010.9 |
| 20260506211601 | 60 | 349 | 3.5 | 7.0 | 0.00 | 0.02 | 0.02 | 79 | 1010.8 |
| 20260506210059 | 59 | 350 | 1.7 | 5.2 | 0.00 | 0.02 | 0.02 | 80 | 1011.3 |
| 20260506204559 | 59 | 350 | 0.9 | 4.3 | 0.00 | 0.02 | 0.02 | 81 | 1011.1 |
| 20260506203059 | 58 | 349 | 1.7 | 7.8 | 0.00 | 0.02 | 0.02 | 81 | 1011.0 |
| 20260506201558 | 58 | 355 | 3.5 | 7.0 | 0.00 | 0.02 | 0.02 | 82 | 1011.3 |
| 20260506200057 | 57 | 348 | 2.6 | 7.8 | 0.00 | 0.02 | 0.02 | 83 | 1011.6 |
| 20260506194628 | 56 | 349 | 1.7 | 7.0 | 0.00 | 0.02 | 0.02 | 84 | 1011.7 |
| 20260506193104 | 55 | 350 | 1.7 | 8.7 | 0.00 | 0.02 | 0.02 | 84 | 1011.8 |
| 20260506191555 | 55 | 347 | 2.6 | 7.0 | 0.00 | 0.02 | 0.02 | 86 | 1011.6 |
| 20260506190057 | 55 | 350 | 2.6 | 7.8 | 0.00 | 0.02 | 0.02 | 85 | 1011.7 |
| 20260506184554 | 54 | 339 | 3.5 | 7.8 | 0.00 | 0.02 | 0.02 | 86 | 1011.8 |
| 20260506183054 | 54 | 347 | 3.5 | 9.6 | 0.00 | 0.02 | 0.02 | 86 | 1012.0 |
| 20260506181553 | 54 | 344 | 2.6 | 8.7 | 0.00 | 0.02 | 0.02 | 86 | 1012.0 |
| 20260506174553 | 54 | 349 | 0.9 | 3.5 | 0.00 | 0.02 | 0.02 | 87 | 1012.2 |
| 20260506173056 | 54 | 349 | 2.6 | 7.0 | 0.00 | 0.02 | 0.02 | 87 | 1012.2 |
| 20260506171557 | 54 | 355 | 3.5 | 7.0 | 0.00 | 0.02 | 0.02 | 87 | 1011.9 |
| 20260506170103 | 54 | 349 | 4.3 | 9.6 | 0.00 | 0.02 | 0.02 | 87 | 1010.6 |
| 20260506164551 | 53 | 338 | 4.3 | 7.8 | 0.00 | 0.02 | 0.02 | 88 | 1010.6 |
| 20260506163109 | 53 | 316 | 3.5 | 8.7 | 0.00 | 0.02 | 0.02 | 88 | 1010.9 |
| 20260506161548 | 52 | 355 | 4.3 | 8.7 | 0.00 | 0.02 | 0.02 | 88 | 1010.7 |
| 20260506160047 | 52 | 351 | 6.1 | 10.4 | 0.00 | 0.02 | 0.02 | 89 | 1010.7 |
| 20260506154606 | 51 | 349 | 3.5 | 7.0 | 0.01 | 0.02 | 0.02 | 89 | 1011.0 |
| 20260506153054 | 51 | 341 | 2.6 | 8.7 | 0.01 | 0.02 | 0.02 | 89 | 1010.8 |
| 20260506151547 | 51 | 341 | 6.1 | 10.4 | 0.02 | 0.02 | 0.02 | 88 | 1009.8 |
| 20260506150042 | 51 | 336 | 2.6 | 7.0 | 0.02 | 0.02 | 0.02 | 88 | 1010.6 |
| 20260506144539 | 51 | 360 | 2.6 | 8.7 | 0.01 | 0.01 | 0.01 | 86 | 1011.1 |
| 20260506143047 | 52 | 349 | 1.7 | 7.0 | 0.01 | 0.01 | 0.01 | 85 | 1011.5 |
| 20260506141538 | 52 | 350 | 2.6 | 10.4 | 0.00 | 0.00 | 0.00 | 84 | 1012.0 |
| 20260506140033 | 52 | 18 | 5.2 | 11.3 | 0.00 | 0.00 | 0.00 | 84 | 1011.3 |
| 20260506134530 | 53 | 347 | 3.5 | 7.8 | 0.00 | 0.00 | 0.00 | 84 | 1011.5 |
| 20260506133026 | 53 | 348 | 4.3 | 9.6 | 0.00 | 0.00 | 0.00 | 83 | 1010.6 |
| 20260506131521 | 54 | 350 | 3.5 | 9.6 | 0.00 | 0.00 | 0.00 | 83 | 1009.5 |
| 20260506130019 | 54 | 343 | 3.5 | 9.6 | 0.00 | 0.00 | 0.00 | 82 | 1009.9 |
| 20260506124516 | 55 | 349 | 2.6 | 7.8 | 0.00 | 0.00 | 0.00 | 83 | 1009.2 |
| 20260506123014 | 55 | 351 | 3.5 | 10.4 | 0.00 | 0.00 | 0.00 | 83 | 1008.9 |
| 20260506121510 | 55 | 351 | 3.5 | 9.6 | 0.00 | 0.00 | 0.00 | 83 | 1008.6 |
| 20260506120008 | 56 | 350 | 4.3 | 9.6 | 0.00 | 0.00 | 0.00 | 83 | 1008.3 |
| 20260506114509 | 56 | 348 | 3.5 | 7.8 | 0.00 | 0.00 | 0.00 | 82 | 1008.4 |
| 20260506113003 | 57 | 345 | 2.6 | 7.8 | 0.00 | 0.00 | 0.00 | 83 | 1008.3 |
| 20260506111600 | 57 | 355 | 4.3 | 9.6 | 0.00 | 0.00 | 0.00 | 83 | 1008.2 |
| 20260506104555 | 58 | 355 | 3.5 | 5.2 | 0.00 | 0.00 | 0.00 | 82 | 1007.5 |
| 20260506103052 | 58 | 355 | 3.5 | 5.2 | 0.00 | 0.00 | 0.00 | 82 | 1007.2 |
| 20260506101601 | 58 | 349 | 2.6 | 5.2 | 0.00 | 0.00 | 0.00 | 82 | 1007.2 |
| 20260506100049 | 59 | 351 | 3.5 | 7.0 | 0.00 | 0.00 | 0.00 | 82 | 1007.0 |
| 20260506094605 | 59 | 350 | 2.6 | 7.8 | 0.00 | 0.00 | 0.00 | 82 | 1006.6 |
| 20260506093052 | 59 | 355 | 3.5 | 5.2 | 0.00 | 0.00 | 0.00 | 81 | 1006.5 |
| 20260506091543 | 59 | 355 | 2.6 | 5.2 | 0.00 | 0.00 | 0.00 | 81 | 1006.5 |
| 20260506090042 | 60 | 355 | 3.5 | 7.0 | 0.00 | 0.00 | 0.00 | 82 | 1006.5 |
| 20260506084541 | 60 | 355 | 2.6 | 7.8 | 0.00 | 0.00 | 0.00 | 82 | 1006.3 |
| 20260506083040 | 60 | 355 | 2.6 | 8.7 | 0.00 | 0.00 | 0.00 | 82 | 1006.3 |
| 20260506081539 | 60 | 350 | 2.6 | 7.8 | 0.00 | 0.00 | 0.00 | 81 | 1006.3 |
| 20260506073029 | 61 | 355 | 1.7 | 4.3 | 0.00 | 0.00 | 0.00 | 81 | 1005.9 |
| 20260506071532 | 61 | 355 | 2.6 | 4.3 | 0.00 | 0.00 | 0.00 | 81 | 1005.7 |
| 20260506061529 | 63 | 355 | 2.6 | 7.0 | 0.00 | 0.00 | 0.00 | 78 | 1005.8 |
| 20260506044506 | 67 | 355 | 1.7 | 5.2 | 0.00 | 0.00 | 0.00 | 75 | 1005.6 |
| 20260506043006 | 68 | 355 | 2.6 | 7.8 | 0.00 | 0.00 | 0.00 | 75 | 1005.6 |
| 20260506041504 | 68 | 355 | 2.6 | 10.4 | 0.00 | 0.00 | 0.00 | 74 | 1005.5 |
| 20260506040002 | 68 | 350 | 2.6 | 7.8 | 0.00 | 0.00 | 0.00 | 74 | 1005.3 |
| 20260506034501 | 69 | 348 | 2.6 | 7.8 | 0.00 | 0.00 | 0.00 | 73 | 1005.4 |
| 20260506033100 | 69 | 360 | 1.7 | 5.2 | 0.00 | 0.00 | 0.00 | 73 | 1005.2 |
| 20260506031605 | 70 | 360 | 0.9 | 3.5 | 0.00 | 0.00 | 0.00 | 72 | 1004.7 |
| 20260506030055 | 71 | 360 | 1.7 | 4.3 | 0.00 | 0.00 | 0.00 | 72 | 1004.1 |
| 20260506024555 | 72 | 360 | 0.0 | 7.0 | 0.00 | 0.00 | 0.00 | 71 | 1003.9 |
| 20260506023054 | 73 | 355 | 2.6 | 7.0 | 0.00 | 0.00 | 0.00 | 70 | 1003.8 |
| 20260506021558 | 75 | 346 | 3.5 | 7.0 | 0.00 | 0.00 | 0.00 | 69 | 1003.0 |
| 20260506020055 | 76 | 355 | 6.1 | 11.3 | 0.00 | 0.00 | 0.00 | 67 | 1002.8 |
| 20260506014552 | 78 | 345 | 4.3 | 9.6 | 0.00 | 0.00 | 0.00 | 69 | 1002.1 |
| 20260506013051 | 79 | 155 | 0.9 | 2.6 | 0.00 | 0.00 | 0.00 | 75 | 1001.4 |